Retour au catalogue

FENGYUN 1C DEB

ActifPO
NORAD 30838·DEBRIS·🇨🇳 China

Lancé May 10, 1999 depuis Taiyuan Satellite Launch Center

Loading…

Prochains Passages (prochaines 24 heures)

TLE

FraisSource: Space-Track

Époque: Sep 14, 2026, 12:59 UTC

1 30838U 99025AVY 26257.54160268  .00005857  00000-0  14493-2 0  9999
2 30838  99.0424 196.5491 0035884  52.8994 307.5470 14.52010797 13075

Suivez FENGYUN 1C DEB en temps réel avec AllMySat

Download on the App Store